Home   Weather   Waco   Past weeks

Flag for USA Past Weather in Waco, Texas, USA — Yesterday and Last 2 Weeks

Now
76 °F

Fog.


Feels Like: 76 °F
Forecast: 62 / 82 °F
Wind: 13 mph from Southeast

Location: Waco Regional Airport

Current Time: Apr 29, 2017 at 4:47:01 am

Latest Report: Apr 29, 2017 at 3:51 am


Visibility: 6 mi

Pressure: 29.58 "Hg

Humidity: 88%

Dew Point: 72 °F

Location of WacoLocation

Past Weather in Waco — Graph

°F

Waco Temperature Yesterday

Maximum temperature yesterday: 88 °F (at 2:51 pm)
Minimum temperature yesterday: 67 °F (at 12:51 am)
Average temperature yesterday: 78 °F

High & Low Weather Summary for the Past Weeks

 TemperatureHumidityPressure
High88 °F (Apr 28, 2:51 pm)100% (Apr 14, 6:51 am)30.17 "Hg (Apr 14, 6:51 am)
Low44 °F (Apr 24, 5:51 am)33% (Apr 23, 4:51 pm)29.41 "Hg (Apr 26, 2:51 am)
Average69 °F77%29.88 "Hg
* Reported Apr 14 2:51 am — Apr 29 2:51 am, Waco, Weather by CustomWeather, © 2017

Note: Actual official high and low records may vary slightly from our data, if they occured in-between our weather recording intervals... More about our weather records

Advertising

Waco Weather History for the Previous 24 Hours

Scroll right to see more
 ConditionsComfort  
Time TempWeatherWind HumidityBarometerVisibility
2:51 am
Sat, Apr 29
75 °FFog.15 mph88%29.58 "Hg6 mi
1:51 am77 °FOvercast.12 mph82%29.60 "Hg6 mi
12:51 am77 °FOvercast.16 mph85%29.60 "Hg7 mi
11:59 pm
Fri, Apr 28
78 °FOvercast.22 mph82%29.62 "Hg7 mi
10:51 pm79 °FClear.18 mph74%29.59 "Hg9 mi
9:51 pm80 °FClear.13 mph67%29.57 "Hg10 mi
8:51 pm83 °FClear.14 mph61%29.54 "Hg10 mi
7:51 pm84 °FSunny.18 mph63%29.52 "Hg9 mi
6:51 pm86 °FPassing clouds.13 mph61%29.51 "Hg9 mi
5:51 pm88 °FPassing clouds.15 mph55%29.52 "Hg9 mi
4:51 pm88 °FPassing clouds.20 mph52%29.52 "Hg10 mi
3:51 pm88 °FScattered clouds.16 mph54%29.54 "Hg10 mi
2:51 pm88 °FSunny.14 mph55%29.56 "Hg10 mi
1:51 pm86 °FSunny.13 mph59%29.59 "Hg9 mi
12:51 pm84 °FSunny.16 mph61%29.60 "Hg9 mi
11:51 am82 °FSunny.18 mph65%29.60 "Hg9 mi
10:51 am80 °FSunny.17 mph69%29.59 "Hg8 mi
9:51 am78 °FSunny.20 mph69%29.59 "Hg8 mi
8:51 am74 °FSunny.17 mph79%29.59 "Hg7 mi
7:51 am71 °FOvercast.13 mph84%29.60 "Hg7 mi
6:51 am71 °FOvercast.12 mph84%29.57 "Hg9 mi
5:51 am70 °FOvercast.12 mph84%29.55 "Hg10 mi
4:51 am70 °FOvercast.18 mph84%29.54 "Hg10 mi
Weather by CustomWeather, © 2017

See weather overviewHow to use our weather pages